owner,sensor,date,latitude,longitude,vertical_datum,wind_speed,wind_to_direction,wind_speed_of_gust,qcFlag 
LUMCON,ioos:station:LUMCON:102:1,2009-08-26T19:00:00Z,29.1870,-90.6093,0.0,3.6,80.0,5.1,'11111222,11111222,11111222' 
LUMCON,ioos:station:LUMCON:102:1,2009-08-26T20:00:00Z,29.1870,-90.6093,0.0,4.1,100.0,5.1,'11111222,11111222,11111222' 
LUMCON,ioos:station:LUMCON:102:1,2009-08-26T21:00:00Z,29.1870,-90.6093,0.0,3.1,120.0,4.6,'11111222,11111222,11111222' 
LUMCON,ioos:station:LUMCON:102:1,2009-08-26T22:00:00Z,29.1870,-90.6093,0.0,4.1,130.0,5.7,'11111222,11111222,11111222' 
LUMCON,ioos:station:LUMCON:102:1,2009-08-26T23:00:00Z,29.1870,-90.6093,0.0,3.6,120.0,5.7,'11111222,11111222,11111222' 
LUMCON,ioos:station:LUMCON:102:1,2009-08-27T00:00:00Z,29.1870,-90.6093,0.0,4.1,120.0,6.2,'11111222,11111222,11111222' 
LUMCON,ioos:station:LUMCON:102:1,2009-08-27T01:00:00Z,29.1870,-90.6093,0.0,4.1,120.0,7.7,'11111222,11111222,11111222' 
LUMCON,ioos:station:LUMCON:102:1,2009-08-27T02:00:00Z,29.1870,-90.6093,0.0,4.1,130.0,5.7,'11111222,11111222,11111222' 
LUMCON,ioos:station:LUMCON:102:1,2009-08-27T03:00:00Z,29.1870,-90.6093,0.0,3.6,130.0,5.7,'11111222,11111222,11111222' 
LUMCON,ioos:station:LUMCON:102:1,2009-08-27T04:00:00Z,29.1870,-90.6093,0.0,3.1,120.0,4.6,'11111222,11111222,11111222' 
LUMCON,ioos:station:LUMCON:102:1,2009-08-27T05:00:00Z,29.1870,-90.6093,0.0,2.6,130.0,4.1,'11111222,11111222,11111222' 
LUMCON,ioos:station:LUMCON:102:1,2009-08-27T06:00:00Z,29.1870,-90.6093,0.0,2.1,110.0,4.1,'11111222,11111222,11111222' 
LUMCON,ioos:station:LUMCON:102:1,2009-08-27T07:00:00Z,29.1870,-90.6093,0.0,2.1,100.0,4.1,'11111222,11111222,11111222' 
LUMCON,ioos:station:LUMCON:102:1,2009-08-27T08:00:00Z,29.1870,-90.6093,0.0,2.1,80.0,4.1,'11111222,11111222,11111222' 
LUMCON,ioos:station:LUMCON:102:1,2009-08-27T09:00:00Z,29.1870,-90.6093,0.0,1.5,60.0,2.1,'11111222,11111222,11111222' 
LUMCON,ioos:station:LUMCON:102:1,2009-08-27T10:00:00Z,29.1870,-90.6093,0.0,2.6,50.0,3.1,'11111222,11111222,11111222' 
LUMCON,ioos:station:LUMCON:102:1,2009-08-27T11:00:00Z,29.1870,-90.6093,0.0,2.6,20.0,3.6,'11111222,11111222,11111222' 
LUMCON,ioos:station:LUMCON:102:1,2009-08-27T12:00:00Z,29.1870,-90.6093,0.0,3.1,20.0,3.6,'11111222,11111222,11111222' 
LUMCON,ioos:station:LUMCON:102:1,2009-08-27T13:00:00Z,29.1870,-90.6093,0.0,3.6,330.0,5.1,'11111222,11111222,11111222' 
LUMCON,ioos:station:LUMCON:102:1,2009-08-27T14:00:00Z,29.1870,-90.6093,0.0,5.1,20.0,7.2,'11111222,11111222,11111222' 
LUMCON,ioos:station:LUMCON:102:1,2009-08-27T15:00:00Z,29.1870,-90.6093,0.0,5.7,40.0,7.7,'11111222,11111222,11111222' 
LUMCON,ioos:station:LUMCON:102:1,2009-08-27T16:00:00Z,29.1870,-90.6093,0.0,4.1,40.0,5.7,'11111222,11111222,11111222' 
LUMCON,ioos:station:LUMCON:102:1,2009-08-27T17:00:00Z,29.1870,-90.6093,0.0,3.6,40.0,5.1,'11111222,11111222,11111222' 
LUMCON,ioos:station:LUMCON:102:1,2009-08-27T18:00:00Z,29.1870,-90.6093,0.0,4.1,50.0,6.2,'11111222,11111222,11111222' 
LUMCON,ioos:station:LUMCON:102:1,2009-08-27T19:00:00Z,29.1870,-90.6093,0.0,3.6,70.0,5.1,'11111222,11111222,11111222' 
LUMCON,ioos:station:LUMCON:102:1,2009-08-27T20:00:00Z,29.1870,-90.6093,0.0,3.6,70.0,5.1,'11111222,11111222,11111222' 
LUMCON,ioos:station:LUMCON:102:1,2009-08-27T21:00:00Z,29.1870,-90.6093,0.0,3.1,70.0,5.7,'11111222,11111222,11111222' 
LUMCON,ioos:station:LUMCON:102:1,2009-08-27T22:00:00Z,29.1870,-90.6093,0.0,3.6,40.0,5.7,'11111222,11111222,11111222' 
LUMCON,ioos:station:LUMCON:102:1,2009-08-27T23:00:00Z,29.1870,-90.6093,0.0,4.1,80.0,6.2,'11111222,11111222,11111222' 
LUMCON,ioos:station:LUMCON:102:1,2009-08-28T00:00:00Z,29.1870,-90.6093,0.0,5.1,100.0,8.2,'11111222,11111222,11111222' 
LUMCON,ioos:station:LUMCON:102:1,2009-08-28T01:00:00Z,29.1870,-90.6093,0.0,5.1,110.0,8.2,'11111222,11111222,11111222' 
LUMCON,ioos:station:LUMCON:102:1,2009-08-28T02:00:00Z,29.1870,-90.6093,0.0,4.1,110.0,7.2,'11111222,11111222,11111222' 
LUMCON,ioos:station:LUMCON:102:1,2009-08-28T03:00:00Z,29.1870,-90.6093,0.0,3.6,100.0,5.7,'11111222,11111222,11111222' 
LUMCON,ioos:station:LUMCON:102:1,2009-08-28T04:00:00Z,29.1870,-90.6093,0.0,3.1,100.0,5.1,'11111222,11111222,11111222' 
LUMCON,ioos:station:LUMCON:102:1,2009-08-28T05:00:00Z,29.1870,-90.6093,0.0,2.6,100.0,4.6,'11111222,11111222,11111222' 
LUMCON,ioos:station:LUMCON:102:1,2009-08-28T06:00:00Z,29.1870,-90.6093,0.0,3.1,130.0,5.1,'11111222,11111222,11111222' 
LUMCON,ioos:station:LUMCON:102:1,2009-08-28T07:00:00Z,29.1870,-90.6093,0.0,1.5,140.0,3.6,'11111222,11111222,11111222' 
LUMCON,ioos:station:LUMCON:102:1,2009-08-28T08:00:00Z,29.1870,-90.6093,0.0,1.5,150.0,3.1,'11111222,11111222,11111222' 
LUMCON,ioos:station:LUMCON:102:1,2009-08-28T09:00:00Z,29.1870,-90.6093,0.0,0.5,170.0,1.5,'11111222,11111222,11111222' 
LUMCON,ioos:station:LUMCON:102:1,2009-08-28T10:00:00Z,29.1870,-90.6093,0.0,0.5,320.0,2.1,'11111222,11111222,11111222' 
LUMCON,ioos:station:LUMCON:102:1,2009-08-28T11:00:00Z,29.1870,-90.6093,0.0,1.5,350.0,2.6,'11111222,11111222,11111222' 
LUMCON,ioos:station:LUMCON:102:1,2009-08-28T12:00:00Z,29.1870,-90.6093,0.0,2.6,30.0,3.6,'11111222,11111222,11111222' 
LUMCON,ioos:station:LUMCON:102:1,2009-08-28T13:00:00Z,29.1870,-90.6093,0.0,1.0,20.0,2.1,'11111222,11111222,11111222' 
LUMCON,ioos:station:LUMCON:102:1,2009-08-28T14:00:00Z,29.1870,-90.6093,0.0,1.5,10.0,2.6,'11111222,11111222,11111222' 
LUMCON,ioos:station:LUMCON:102:1,2009-08-28T15:00:00Z,29.1870,-90.6093,0.0,2.6,20.0,3.6,'11111222,11111222,11111222' 
LUMCON,ioos:station:LUMCON:102:1,2009-08-28T16:00:00Z,29.1870,-90.6093,0.0,1.5,40.0,3.6,'11111222,11111222,11111222' 
LUMCON,ioos:station:LUMCON:102:1,2009-08-28T17:00:00Z,29.1870,-90.6093,0.0,1.0,20.0,2.1,'11111222,11111222,11111222' 
LUMCON,ioos:station:LUMCON:102:1,2009-08-28T18:00:00Z,29.1870,-90.6093,0.0,2.1,160.0,4.1,'11111222,11111222,11111222' 
LUMCON,ioos:station:LUMCON:102:1,2009-08-28T19:00:00Z,29.1870,-90.6093,0.0,3.1,190.0,5.1,'11111222,11111222,11111222' 
LUMCON,ioos:station:LUMCON:102:1,2009-08-28T20:00:00Z,29.1870,-90.6093,0.0,4.1,170.0,6.2,'11111222,11111222,11111222' 
LUMCON,ioos:station:LUMCON:102:1,2009-08-28T21:00:00Z,29.1870,-90.6093,0.0,3.6,220.0,6.2,'11111222,11111222,11111222' 
LUMCON,ioos:station:LUMCON:102:1,2009-08-28T22:00:00Z,29.1870,-90.6093,0.0,6.2,260.0,8.8,'11111222,11111222,11111222' 
LUMCON,ioos:station:LUMCON:102:1,2009-08-28T23:00:00Z,29.1870,-90.6093,0.0,4.1,220.0,6.7,'11111222,11111222,11111222' 
LUMCON,ioos:station:LUMCON:102:1,2009-08-29T00:00:00Z,29.1870,-90.6093,0.0,4.1,270.0,6.2,'11111222,11111222,11111222' 
LUMCON,ioos:station:LUMCON:102:1,2009-08-29T01:00:00Z,29.1870,-90.6093,0.0,3.1,340.0,6.2,'11111222,11111222,11111222' 
LUMCON,ioos:station:LUMCON:102:1,2009-08-29T02:00:00Z,29.1870,-90.6093,0.0,2.1,330.0,3.6,'11111222,11111222,11111222' 
LUMCON,ioos:station:LUMCON:102:1,2009-08-29T03:00:00Z,29.1870,-90.6093,0.0,1.5,330.0,2.6,'11111222,11111222,11111222' 
LUMCON,ioos:station:LUMCON:102:1,2009-08-29T04:00:00Z,29.1870,-90.6093,0.0,1.0,340.0,2.1,'11111222,11111222,11111222' 
LUMCON,ioos:station:LUMCON:102:1,2009-08-29T05:00:00Z,29.1870,-90.6093,0.0,0.5,30.0,1.0,'11111222,11111222,11111222' 
LUMCON,ioos:station:LUMCON:102:1,2009-08-29T06:00:00Z,29.1870,-90.6093,0.0,0.5,20.0,0.5,'11111222,11111222,11111222' 
LUMCON,ioos:station:LUMCON:102:1,2009-08-29T07:00:00Z,29.1870,-90.6093,0.0,2.1,320.0,4.1,'11111222,11111222,11111222' 
LUMCON,ioos:station:LUMCON:102:1,2009-08-29T08:00:00Z,29.1870,-90.6093,0.0,2.1,320.0,4.6,'11111222,11111222,11111222' 
LUMCON,ioos:station:LUMCON:102:1,2009-08-29T09:00:00Z,29.1870,-90.6093,0.0,3.1,250.0,5.1,'11111222,11111222,11111222' 
LUMCON,ioos:station:LUMCON:102:1,2009-08-29T10:00:00Z,29.1870,-90.6093,0.0,3.6,240.0,5.1,'11111222,11111222,11111222' 
LUMCON,ioos:station:LUMCON:102:1,2009-08-29T11:00:00Z,29.1870,-90.6093,0.0,3.6,240.0,5.1,'11111222,11111222,11111222' 
LUMCON,ioos:station:LUMCON:102:1,2009-08-29T12:00:00Z,29.1870,-90.6093,0.0,3.1,220.0,4.6,'11111222,11111222,11111222' 
LUMCON,ioos:station:LUMCON:102:1,2009-08-29T13:00:00Z,29.1870,-90.6093,0.0,3.6,220.0,5.1,'11111222,11111222,11111222' 
LUMCON,ioos:station:LUMCON:102:1,2009-08-29T14:00:00Z,29.1870,-90.6093,0.0,4.1,220.0,5.7,'11111222,11111222,11111222' 
LUMCON,ioos:station:LUMCON:102:1,2009-08-29T15:00:00Z,29.1870,-90.6093,0.0,3.6,220.0,5.1,'11111222,11111222,11111222' 
LUMCON,ioos:station:LUMCON:102:1,2009-08-29T16:00:00Z,29.1870,-90.6093,0.0,4.1,220.0,5.1,'11111222,11111222,11111222' 
LUMCON,ioos:station:LUMCON:102:1,2009-08-29T17:00:00Z,29.1870,-90.6093,0.0,4.1,240.0,6.2,'11111222,11111222,11111222' 
LUMCON,ioos:station:LUMCON:102:1,2009-08-29T18:00:00Z,29.1870,-90.6093,0.0,5.1,240.0,7.2,'11111222,11111222,11111222' 
LUMCON,ioos:station:LUMCON:102:1,2009-08-29T19:00:00Z,29.1870,-90.6093,0.0,3.6,240.0,5.1,'11111222,11111222,11111222' 
LUMCON,ioos:station:LUMCON:102:1,2009-08-29T20:00:00Z,29.1870,-90.6093,0.0,3.6,250.0,5.1,'11111222,11111222,11111222' 
LUMCON,ioos:station:LUMCON:102:1,2009-08-29T21:00:00Z,29.1870,-90.6093,0.0,4.6,230.0,6.7,'11111222,11111222,11111222' 
LUMCON,ioos:station:LUMCON:102:1,2009-08-29T22:00:00Z,29.1870,-90.6093,0.0,5.1,240.0,6.7,'11111222,11111222,11111222' 
LUMCON,ioos:station:LUMCON:102:1,2009-08-29T23:00:00Z,29.1870,-90.6093,0.0,5.1,230.0,6.7,'11111222,11111222,11111222' 
LUMCON,ioos:station:LUMCON:102:1,2009-08-30T00:00:00Z,29.1870,-90.6093,0.0,4.1,220.0,5.7,'11111222,11111222,11111222' 
LUMCON,ioos:station:LUMCON:102:1,2009-08-30T01:00:00Z,29.1870,-90.6093,0.0,4.1,210.0,6.2,'11111222,11111222,11111222' 
LUMCON,ioos:station:LUMCON:102:1,2009-08-30T02:00:00Z,29.1870,-90.6093,0.0,4.6,200.0,7.7,'11111222,11111222,11111222' 
LUMCON,ioos:station:LUMCON:102:1,2009-08-30T03:00:00Z,29.1870,-90.6093,0.0,5.1,200.0,8.2,'11111222,11111222,11111222' 
LUMCON,ioos:station:LUMCON:102:1,2009-08-30T04:00:00Z,29.1870,-90.6093,0.0,5.7,200.0,8.2,'11111222,11111222,11111222' 
LUMCON,ioos:station:LUMCON:102:1,2009-08-30T05:00:00Z,29.1870,-90.6093,0.0,5.7,200.0,8.2,'11111222,11111222,11111222' 
LUMCON,ioos:station:LUMCON:102:1,2009-08-30T06:00:00Z,29.1870,-90.6093,0.0,5.7,210.0,8.2,'11111222,11111222,11111222' 
LUMCON,ioos:station:LUMCON:102:1,2009-08-30T07:00:00Z,29.1870,-90.6093,0.0,5.1,220.0,7.2,'11111222,11111222,11111222' 
LUMCON,ioos:station:LUMCON:102:1,2009-08-30T08:00:00Z,29.1870,-90.6093,0.0,4.6,260.0,8.2,'11111222,11111222,11111222' 
LUMCON,ioos:station:LUMCON:102:1,2009-08-30T09:00:00Z,29.1870,-90.6093,0.0,1.5,330.0,4.1,'11111222,11111222,11111222' 
LUMCON,ioos:station:LUMCON:102:1,2009-08-30T10:00:00Z,29.1870,-90.6093,0.0,3.1,300.0,5.7,'11111222,11111222,11111222' 
LUMCON,ioos:station:LUMCON:102:1,2009-08-30T11:00:00Z,29.1870,-90.6093,0.0,2.1,280.0,3.6,'11111222,11111222,11111222' 
LUMCON,ioos:station:LUMCON:102:1,2009-08-30T12:00:00Z,29.1870,-90.6093,0.0,1.0,250.0,2.1,'11111222,11111222,11111222' 
LUMCON,ioos:station:LUMCON:102:1,2009-08-30T13:00:00Z,29.1870,-90.6093,0.0,3.1,220.0,4.1,'11111222,11111222,11111222' 
LUMCON,ioos:station:LUMCON:102:1,2009-08-30T14:00:00Z,29.1870,-90.6093,0.0,2.1,300.0,3.1,'11111222,11111222,11111222' 
LUMCON,ioos:station:LUMCON:102:1,2009-08-30T15:00:00Z,29.1870,-90.6093,0.0,3.1,260.0,4.6,'11111222,11111222,11111222' 
LUMCON,ioos:station:LUMCON:102:1,2009-08-30T16:00:00Z,29.1870,-90.6093,0.0,2.6,260.0,4.1,'11111222,11111222,11111222' 
LUMCON,ioos:station:LUMCON:102:1,2009-08-30T17:00:00Z,29.1870,-90.6093,0.0,2.6,290.0,4.1,'11111222,11111222,11111222' 
LUMCON,ioos:station:LUMCON:102:1,2009-08-30T18:00:00Z,29.1870,-90.6093,0.0,4.6,240.0,5.7,'11111222,11111222,11111222' 
LUMCON,ioos:station:LUMCON:102:1,2009-08-30T19:00:00Z,29.1870,-90.6093,0.0,5.1,250.0,6.2,'11111222,11111222,11111222' 
LUMCON,ioos:station:LUMCON:102:1,2009-08-30T20:00:00Z,29.1870,-90.6093,0.0,3.6,260.0,4.6,'11111222,11111222,11111222' 
LUMCON,ioos:station:LUMCON:102:1,2009-08-30T21:00:00Z,29.1870,-90.6093,0.0,4.1,240.0,5.1,'11111222,11111222,11111222' 
LUMCON,ioos:station:LUMCON:102:1,2009-08-30T22:00:00Z,29.1870,-90.6093,0.0,4.6,240.0,6.7,'11111222,11111222,11111222' 
LUMCON,ioos:station:LUMCON:102:1,2009-08-30T23:00:00Z,29.1870,-90.6093,0.0,4.1,240.0,5.7,'11111222,11111222,11111222' 
LUMCON,ioos:station:LUMCON:102:1,2009-08-31T00:00:00Z,29.1870,-90.6093,0.0,3.1,250.0,5.1,'11111222,11111222,11111222' 
LUMCON,ioos:station:LUMCON:102:1,2009-08-31T01:00:00Z,29.1870,-90.6093,0.0,2.6,350.0,4.1,'11111222,11111222,11111222' 
LUMCON,ioos:station:LUMCON:102:1,2009-08-31T02:00:00Z,29.1870,-90.6093,0.0,3.6,20.0,6.7,'11111222,11111222,11111222' 
LUMCON,ioos:station:LUMCON:102:1,2009-08-31T03:00:00Z,29.1870,-90.6093,0.0,3.6,60.0,5.7,'11111222,11111222,11111222' 
LUMCON,ioos:station:LUMCON:102:1,2009-08-31T04:00:00Z,29.1870,-90.6093,0.0,1.5,70.0,2.1,'11111222,11111222,11111222' 
LUMCON,ioos:station:LUMCON:102:1,2009-08-31T05:00:00Z,29.1870,-90.6093,0.0,2.1,50.0,3.6,'11111222,11111222,11111222' 
LUMCON,ioos:station:LUMCON:102:1,2009-08-31T06:00:00Z,29.1870,-90.6093,0.0,1.5,90.0,2.1,'11111222,11111222,11111222' 
LUMCON,ioos:station:LUMCON:102:1,2009-08-31T07:00:00Z,29.1870,-90.6093,0.0,1.0,110.0,1.5,'11111222,11111222,11111222' 
LUMCON,ioos:station:LUMCON:102:1,2009-08-31T08:00:00Z,29.1870,-90.6093,0.0,1.0,100.0,1.5,'11111222,11111222,11111222' 
LUMCON,ioos:station:LUMCON:102:1,2009-08-31T09:00:00Z,29.1870,-90.6093,0.0,1.5,70.0,3.1,'11111222,11111222,11111222' 
LUMCON,ioos:station:LUMCON:102:1,2009-08-31T10:00:00Z,29.1870,-90.6093,0.0,1.0,40.0,1.5,'11111222,11111222,11111222' 
LUMCON,ioos:station:LUMCON:102:1,2009-08-31T11:00:00Z,29.1870,-90.6093,0.0,4.1,30.0,6.7,'11111222,11111222,11111222' 
LUMCON,ioos:station:LUMCON:102:1,2009-08-31T12:00:00Z,29.1870,-90.6093,0.0,3.6,40.0,5.1,'11111222,11111222,11111222' 
LUMCON,ioos:station:LUMCON:102:1,2009-08-31T13:00:00Z,29.1870,-90.6093,0.0,2.6,40.0,4.1,'11111222,11111222,11111222' 
LUMCON,ioos:station:LUMCON:102:1,2009-08-31T14:00:00Z,29.1870,-90.6093,0.0,3.1,50.0,4.6,'11111222,11111222,11111222' 
LUMCON,ioos:station:LUMCON:102:1,2009-08-31T16:00:00Z,29.1870,-90.6093,0.0,5.1,60.0,6.7,'11111222,11111222,11111222' 
LUMCON,ioos:station:LUMCON:102:1,2009-08-31T17:00:00Z,29.1870,-90.6093,0.0,5.1,40.0,6.7,'11111222,11111222,11111222' 
LUMCON,ioos:station:LUMCON:102:1,2009-08-31T18:00:00Z,29.1870,-90.6093,0.0,4.6,40.0,6.2,'11111222,11111222,11111222' 
LUMCON,ioos:station:LUMCON:102:1,2009-08-31T19:00:00Z,29.1870,-90.6093,0.0,4.1,50.0,5.1,'11111222,11111222,11111222' 
LUMCON,ioos:station:LUMCON:102:1,2009-08-31T22:00:00Z,29.1870,-90.6093,0.0,4.1,70.0,5.7,'11111222,11111222,11111222' 
LUMCON,ioos:station:LUMCON:102:1,2009-08-31T23:00:00Z,29.1870,-90.6093,0.0,3.6,90.0,5.7,'11111222,11111222,11111222' 
 
DISCLAIMER: The Gulf of Mexico Coastal and Ocean Observing (GCOOS) Data Portal aggregates data from the regional data providers for the convenience of all data users. Data published on this website should not be used for navigation or certain other uses as we cannot guarantee data accuracy or availability. The data and delivery services are provided 'as is' without warranty of any kind. Data Source: Gulf of Mexico Coastal Ocean Observing System Data Portal (http://data.gcoos.org/) 
